Regional Weather Roundup
Issued by NWS Sterling, VA

Home | Current Version | Previous Version | Graphics & Text | Print | Product List | Glossary On
Versions: 1 2 3 4 5 6 7 8 9 10 11 12 13 14 15 16 17 18 19 20 21 22 23 24 25 26 27 28 29 30 31 32 33 34 35 36 37 38 39 40 41 42 43 44 45 46 47 48 49 50
000
ASUS41 KLWX 312110
RWRLWX

REGIONAL WEATHER ROUNDUP
NATIONAL WEATHER SERVICE BALTIMORE MD/WASHINGTON DC
500 PM EDT MON AUG 31 2015

Note: "FAIR" indicates few or no clouds below 12,000 feet
with no significant weather and/or obstructions to visibility.
 TC=TEMPERATURE CELSIUS

 * =Non NWS site. Station does not report precipitation (e.g. rain,
    snow, etc.), thunder, or fog.

DCZ001-MDZ009-015-VAZ040>042-051-053>054-312200-
WASHINGTON METRO

CITY           SKY/WX    TMP DP  RH WIND       PRES   REMARKS
WASHINGTON NAT FAIR      87  68  52 S10       30.04F HX  90
DULLES         PTSUNNY   86  65  49 CALM      30.04F
ANDREWS AFB    FAIR      87  60  40 SW10      30.04F
FT BELVOIR     FAIR      87  65  47 SE6       30.04F
QUANTICO       FAIR      85  68  56 S7        30.05F
COLLEGE PARK*  FAIR      88  61  40 CALM      30.03F
LEESBURG*      FAIR      88  70  55 W3        30.05F HX  92
MANASSAS*      SUNNY     88  64  45 SE7       30.05F
GAITHERSBURG*  FAIR      88  66  48 S7        30.08F HX  90

$$

MDZ006>007-011-014-312200-
BALTIMORE METRO

CITY           SKY/WX    TMP DP  RH WIND       PRES   REMARKS
BWI AIRPORT    PTSUNNY   87  64  46 S9        30.02F
MD SCIENCE CTR   N/A     87  65  47 MISG      30.02F
MARTIN STATE   PTSUNNY   84  70  61 S6        30.04
ANNAPOLIS      FAIR      85  66  53 S7        30.03F
FORT MEADE*    FAIR      82  64  54 SW8       30.06S

$$

MDZ012-015-019>023-312200-
MARYLAND EASTERN SHORE

CITY           SKY/WX    TMP DP  RH WIND       PRES   REMARKS
OCEAN CITY     FAIR      86  65  49 SW12      30.05F
SALISBURY      PTSUNNY   84  67  56 W8        30.05F
BAY BRIDGE AP*   N/A     82  63  51 SW6       30.04F
CAMBRIDGE*     FAIR      84  64  51 SW3       30.05S
EASTON*        MOSUNNY   84  66  54 W9        30.08F

$$

MDZ017>025-312200-
SOUTHERN MARYLAND

CITY           SKY/WX    TMP DP  RH WIND       PRES   REMARKS
PATUXENT RIVER PTSUNNY   85  67  54 SW6       30.05F
ST INIGOES     FAIR      84  68  58 S7        30.05F
LEONARDTOWN*   NOT AVBL

$$

MDZ003>005-312200-
NORTH CENTRAL MARYLAND

CITY           SKY/WX    TMP DP  RH WIND       PRES   REMARKS
FREDERICK*     MOSUNNY   88  70  55 SW8       30.06S HX  92
HAGERSTOWN APT FAIR      85  60  42 NW3       30.04F
WESTMINSTER*   FAIR      88  64  45 SW9       30.05S

$$

MDZ501>502-312200-
WESTERN MARYLAND

CITY           SKY/WX    TMP DP  RH WIND       PRES   REMARKS
OAKLAND*       FAIR      70  61  73 W3        30.18S
CUMBERLAND*    FAIR      84  63  48 CALM      30.09F

$$

VAZ025>031-312200-
SHENANDOAH VALLEY

CITY           SKY/WX    TMP DP  RH WIND       PRES   REMARKS
WINCHESTER*    FAIR      88  61  40 SE8       30.05S
FRONT ROYAL*   FAIR      88  66  48 NE7       30.04S HX  90
LURAY*         FAIR      88  61  40 SE5       30.05F
NEW MARKET*    FAIR      87  61  41 CALM      30.04S
STAUNTON*      FAIR      88  57  35 CALM      30.10S
WAYNESBORO*    FAIR      86  58  37 SE7       30.10S

$$

WVZ021-048>050-054>055-312200-
EASTERN WEST VIRGINIA PANHANDLE

CITY           SKY/WX    TMP DP  RH WIND       PRES   REMARKS
MARTINSBURG    PTSUNNY   85  64  49 SE8       30.04F
PETERSBURG*    FAIR      82  68  63 NW3       30.07S

$$

VAZ036>039-050-312200-
CENTRAL FOOTHILLS

CITY           SKY/WX    TMP DP  RH WIND       PRES   REMARKS
CHARLOTTESVILL FAIR      88  59  37 E6        30.06F
CULPEPER*      FAIR      86  64  47 CALM      30.05F
ORANGE*        FAIR      88  61  40 SE6       30.06F
GORDONSVILLE*  MOCLDY    86  61  43 CALM      30.05S
WARRENTON*     FAIR      89  63  42 SW3       30.05S HX  90

$$

VAZ055>057-312200-
NORTH AND CENTRAL PIEDMONT

CITY           SKY/WX    TMP DP  RH WIND       PRES   REMARKS
FREDERICKSBRG* FAIR      90  62  39 S5        30.04S HX  90
STAFFORD*      FAIR      86  59  40 CALM      30.08F

$$

NCZ024-NYZ072-PAZ021-071-VAZ022-071-312200-
OTHER REGIONAL OBSERVATIONS

CITY           SKY/WX    TMP DP  RH WIND       PRES   REMARKS
NEW YORK CITY  FAIR      90  63  40 VRB3      29.97F HX  91
PHILADELPHIA   PTSUNNY   88  68  51 SW12      30.00S HX  91
PITTSBURGH     FAIR      88  62  41 W9        30.06F
ROANOKE        PTSUNNY   87  59  38 NW5       30.09F
RICHMOND       PTSUNNY   85  70  60 S12       30.07S
RALEIGH        CLOUDY    75  69  81 VRB5      30.08F

$$

ANZ530>537-312200-
MARINE OBSERVATIONS

STATION/POSITION TIME  TEMP    WIND        PRES
                       AIR SEA DIR/SP/G
                 (UTC) (F)     (DEG/KT/KT) (MB)
THOMAS PT LIGHT  2100   80 79  180/ 10/ 11 1017.6
BALT KEY BRIDGE  2000   84     200/ 11/ 12 1016.7F
COVE POINT       2000   83     320/  3/  4 1018.4F
LEWISETTA        2000   82 80  260/  5/  7 1017.7F
SOLOMONS ISLAND  2000      80                N/A
PINEY POINT      2005          230/  4/  4   N/A

$$




USA.gov is the U.S. government's official web portal to all federal, state and local government web resources and services.